Location: Ash Swamp
(41.5170°N, 74.6157°W)
Time: 15:37:48
(UTC+00:00)

USA 267 - Pass Details

Date: 14 July 2020
Orbit: 1102 x 1106 km, 123.0° (Epoch: 02 August)

Event Time Altitude Azimuth Distance (km) Brightness Sun altitude
Exits shadow 05:54:08 54° 218° (SW) 1,322 3.3 -25.8°
Maximum altitude 05:54:26 54° 228° (SW) 1,316 3.3 -25.8°
Drops below altitude 10° 06:00:49 10° 305° (NW) 2,964 5.7 -25.5°
Sets 06:03:23 0° 310° (NW) 3,925 6.5 -25.4°
